Mount Shasta, CA

1:07 PM PST on February 12, 2016 (GMT -0800)
Mount Shasta

Weather History for KMHS - September, 2012

Change the Weather History Date:

Saturday, September 8, 2012

  Actual Average Record
Temperature  
Mean Temperature 68 °F 62 °F  
Max Temperature 86 °F 80 °F 96 °F (1944)
Min Temperature 50 °F 44 °F 31 °F (1929)
Degree Days  
Heating Degree Days 0 4  
Month to date heating degree days 3 27  
Since 1 July heating degree days 31 102  
Cooling Degree Days 3 1  
Month to date cooling degree days 9 9  
Year to date cooling degree days 369 269  
Growing Degree Days 17 (Base 50)    
Moisture  
Dew Point 48 °F    
Average Humidity 55    
Maximum Humidity 80    
Minimum Humidity 27    
Precipitation  
Precipitation 0.00 in 0.02 in 0.85 in (1930)
Month to date precipitation 0.00 0.14  
Year to date precipitation 24.56 27.47  
Sea Level Pressure  
Sea Level Pressure 30.06 in    
Wind  
Wind Speed 1 mph (ENE)    
Max Wind Speed 8 mph    
Max Gust Speed 18 mph    
Visibility 10 miles    
Events      
T = Trace of Precipitation, MM = Missing Value Source: NWS Daily Summary

Daily Weather History Graph

Daily Weather History Graph

Search for Another Location

Airport or City:

Trip Planner

Search our weather history database for the weather conditions in past years. The results will help you decide how hot, cold, wet, or windy it might be!

Date:

Astronomy

Sep. 08, 2012 Rise Set
Actual Time 6:43 AM PDT 7:29 PM PDT
Civil Twilight 6:15 AM PDT 7:57 PM PDT
Nautical Twilight 5:42 AM PDT 8:30 PM PDT
Astronomical Twilight 5:07 AM PDT 9:04 PM PDT
Moon No Moon Rise 2:33 PM PDT (9/8)
Length of Visible Light 13h 42m
Length of Day
12h 46m
Waning Gibbous, 48% of the Moon is Illuminated
Sep 8
Waning Gibbous
Sep 15
New
Sep 22
First Quarter
Sep 29
Full
Oct 8
Last Quarter

Hourly Weather History & Observations

Time (PDT) Temp. Dew Point Humidity Pressure Visibility Wind Dir Wind Speed Gust Speed Precip Events Conditions
12:56 AM 53.1 °F 44.1 °F 71% 30.11 in 10.0 mi Calm Calm - N/A   Clear
1:56 AM 55.0 °F 44.1 °F 67% 30.09 in 10.0 mi Calm Calm - N/A   Clear
2:56 AM 52.0 °F 44.1 °F 74% 30.09 in 10.0 mi Calm Calm - N/A   Clear
3:56 AM 52.0 °F 45.0 °F 77% 30.08 in 10.0 mi Calm Calm - N/A   Partly Cloudy
4:56 AM 51.1 °F 44.1 °F 77% 30.09 in 10.0 mi Calm Calm - N/A   Clear
5:56 AM 50.0 °F 45.0 °F 83% 30.11 in 10.0 mi Calm Calm - N/A   Clear
6:56 AM 53.1 °F 45.0 °F 74% 30.12 in 10.0 mi Calm Calm - N/A   Partly Cloudy
7:56 AM 57.0 °F 48.0 °F 72% 30.13 in 10.0 mi Calm Calm - N/A   Clear
8:56 AM 62.1 °F 52.0 °F 70% 30.12 in 10.0 mi Calm Calm - N/A   Scattered Clouds
9:56 AM 75.0 °F 50.0 °F 41% 30.10 in 10.0 mi Variable 3.5 mph - N/A   Clear
10:56 AM 78.1 °F 48.9 °F 36% 30.09 in 10.0 mi Calm Calm - N/A   Clear
11:56 AM 82.0 °F 51.1 °F 34% 30.08 in 10.0 mi Variable 3.5 mph - N/A   Clear
12:56 PM 82.9 °F 46.9 °F 28% 30.07 in 5.0 mi Variable 4.6 mph - N/A   Haze
1:56 PM 84.9 °F 46.9 °F 27% 30.05 in 5.0 mi Variable 4.6 mph - N/A   Haze
2:56 PM 84.9 °F 48.9 °F 29% 30.03 in 10.0 mi Calm Calm - N/A   Clear
3:56 PM 84.9 °F 48.9 °F 29% 30.00 in 10.0 mi Variable 3.5 mph - N/A   Clear
4:56 PM 81.0 °F 48.0 °F 31% 30.00 in 10.0 mi Calm Calm - N/A   Clear
5:56 PM 79.0 °F 50.0 °F 36% 30.00 in 10.0 mi Calm Calm - N/A   Clear
6:56 PM 75.9 °F 48.0 °F 37% 30.00 in 10.0 mi Calm Calm - N/A   Clear
7:56 PM 69.1 °F 50.0 °F 51% 30.01 in 10.0 mi ENE 4.6 mph - N/A   Clear
8:56 PM 64.9 °F 48.9 °F 56% 30.01 in 10.0 mi Calm Calm - N/A   Clear
9:56 PM 61.0 °F 48.9 °F 64% 30.01 in 10.0 mi Calm Calm - N/A   Clear
10:56 PM 57.0 °F 48.0 °F 72% 30.01 in 10.0 mi Calm Calm - N/A   Clear
11:56 PM 55.0 °F 46.9 °F 74% 30.00 in 10.0 mi Calm Calm - N/A   Clear